DAL1262 KPDX-KSEA

Flight info

Callsign DAL1262
Flight time 0h 30m
Altitude 20000
Route COUGA KRIEG HAWKZ8
Aircraft B739/M-SDE2E3FGHIRWXY/LB1

Departure

Time 2026-05-07 01:58
Airport Portland International Airport (KPDX)

Arrival

Time 2026-05-07 02:29
Airport Seattle–Tacoma International Airport (KSEA)
Time Latitude Longitude Altitude Speed Heading
2026-05-07 01:09 45.59163 -122.59519 35 ft 0 kts 195°
2026-05-07 01:48 45.59170 -122.59517 32 ft 4 kts 197°
2026-05-07 01:48 45.59194 -122.59502 33 ft 4 kts 212°
2026-05-07 01:48 45.59214 -122.59478 35 ft 4 kts 238°
2026-05-07 01:49 45.59222 -122.59445 35 ft 4 kts 277°
2026-05-07 01:49 45.59217 -122.59424 35 ft 1 kts 298°
2026-05-07 01:49 45.59216 -122.59422 35 ft 1 kts 298°
2026-05-07 01:52 45.59221 -122.59434 35 ft 4 kts 299°
2026-05-07 01:52 45.59249 -122.59506 35 ft 12 kts 299°
2026-05-07 01:53 45.59287 -122.59604 34 ft 11 kts 298°
2026-05-07 01:53 45.59353 -122.59652 32 ft 13 kts 37°
2026-05-07 01:53 45.59363 -122.59618 32 ft 14 kts 87°
2026-05-07 01:53 45.59318 -122.59465 36 ft 18 kts 118°
2026-05-07 01:54 45.59243 -122.59284 39 ft 22 kts 120°
2026-05-07 01:54 45.59170 -122.59092 42 ft 22 kts 118°
2026-05-07 01:54 45.59099 -122.58905 41 ft 21 kts 119°
2026-05-07 01:54 45.59028 -122.58724 39 ft 20 kts 119°
2026-05-07 01:55 45.58961 -122.58550 36 ft 20 kts 118°
2026-05-07 01:55 45.58895 -122.58382 37 ft 19 kts 120°
2026-05-07 01:55 45.58830 -122.58220 40 ft 19 kts 119°
2026-05-07 01:55 45.58770 -122.58060 41 ft 18 kts 117°
2026-05-07 01:56 45.58706 -122.57901 44 ft 20 kts 119°
2026-05-07 01:56 45.58640 -122.57725 39 ft 21 kts 119°
2026-05-07 01:56 45.58570 -122.57546 38 ft 20 kts 119°
2026-05-07 01:56 45.58502 -122.57373 35 ft 20 kts 119°
2026-05-07 01:57 45.58437 -122.57208 37 ft 19 kts 119°
2026-05-07 01:57 45.58374 -122.57045 38 ft 18 kts 119°
2026-05-07 01:57 45.58360 -122.56902 40 ft 13 kts 44°
2026-05-07 01:57 45.58445 -122.56918 35 ft 16 kts 304°
2026-05-07 01:58 45.58524 -122.57110 36 ft 40 kts 299°
2026-05-07 01:58 45.58798 -122.57813 41 ft 119 kts 299°
2026-05-07 01:58 45.59305 -122.59091 187 ft 164 kts 301°
2026-05-07 01:58 45.59872 -122.60485 967 ft 169 kts 302°
2026-05-07 01:59 45.60483 -122.61990 1679 ft 178 kts 302°
2026-05-07 01:59 45.61108 -122.63563 2274 ft 193 kts 301°
2026-05-07 01:59 45.61830 -122.65256 2700 ft 202 kts 311°
2026-05-07 01:59 45.62991 -122.66438 3027 ft 216 kts 336°
2026-05-07 02:00 45.64466 -122.66888 3631 ft 216 kts 354°
2026-05-07 02:00 45.65939 -122.66971 4366 ft 207 kts 354°
2026-05-07 02:00 45.67369 -122.67010 4993 ft 209 kts 356°
2026-05-07 02:00 45.68874 -122.67024 5234 ft 224 kts 356°
2026-05-07 02:01 45.70430 -122.67004 5824 ft 223 kts 357°
2026-05-07 02:01 45.72029 -122.66969 6128 ft 237 kts 355°
2026-05-07 02:01 45.73745 -122.67028 6371 ft 251 kts 355°
2026-05-07 02:01 45.75534 -122.67082 6796 ft 263 kts 355°
2026-05-07 02:02 45.77356 -122.67150 7344 ft 267 kts 354°
2026-05-07 02:02 45.79231 -122.67215 7964 ft 272 kts 355°
2026-05-07 02:02 45.81123 -122.67203 8687 ft 268 kts 355°
2026-05-07 02:02 45.82988 -122.67150 9387 ft 272 kts 356°
2026-05-07 02:03 45.84923 -122.67107 9883 ft 282 kts 355°
2026-05-07 02:03 45.86916 -122.67095 10310 ft 294 kts 355°
2026-05-07 02:03 45.89046 -122.67116 10452 ft 315 kts 354°
2026-05-07 02:03 45.91282 -122.67161 10594 ft 334 kts 354°
2026-05-07 02:04 45.93673 -122.67222 10727 ft 352 kts 354°
2026-05-07 02:04 45.96196 -122.67295 10873 ft 369 kts 354°
2026-05-07 02:04 45.98822 -122.67375 11004 ft 383 kts 354°
2026-05-07 02:04 46.01515 -122.67456 11351 ft 390 kts 354°
2026-05-07 02:05 46.04240 -122.67539 11894 ft 391 kts 354°
2026-05-07 02:05 46.06939 -122.67626 12399 ft 393 kts 354°
2026-05-07 02:05 46.09692 -122.67750 12891 ft 395 kts 351°
2026-05-07 02:05 46.12443 -122.68160 13385 ft 396 kts 347°
2026-05-07 02:06 46.15169 -122.68730 13904 ft 397 kts 346°
2026-05-07 02:06 46.17885 -122.69332 14377 ft 400 kts 346°
2026-05-07 02:06 46.20648 -122.69928 14847 ft 402 kts 346°
2026-05-07 02:06 46.23426 -122.70502 15345 ft 404 kts 347°
2026-05-07 02:07 46.26203 -122.71058 15808 ft 407 kts 347°
2026-05-07 02:07 46.31848 -122.72169 16748 ft 411 kts 347°
2026-05-07 02:07 46.34729 -122.72525 17201 ft 417 kts 352°
2026-05-07 02:08 46.37638 -122.72644 17637 ft 420 kts 353°
2026-05-07 02:08 46.40538 -122.72682 17984 ft 421 kts 354°
2026-05-07 02:08 46.43493 -122.72715 18009 ft 424 kts 354°
2026-05-07 02:08 46.46438 -122.72767 18018 ft 423 kts 353°
2026-05-07 02:09 46.49384 -122.72842 18016 ft 422 kts 353°
2026-05-07 02:09 46.52324 -122.72936 18024 ft 422 kts 353°
2026-05-07 02:09 46.55221 -122.73039 18022 ft 422 kts 353°
2026-05-07 02:09 46.58170 -122.73148 18021 ft 422 kts 353°
2026-05-07 02:10 46.61102 -122.73257 18026 ft 421 kts 353°
2026-05-07 02:10 46.64043 -122.73366 18016 ft 422 kts 353°
2026-05-07 02:10 46.66952 -122.73474 17877 ft 423 kts 353°
2026-05-07 02:10 46.69872 -122.73580 17741 ft 415 kts 353°
2026-05-07 02:11 46.72699 -122.73676 17638 ft 397 kts 353°
2026-05-07 02:11 46.75404 -122.73767 17539 ft 380 kts 353°
2026-05-07 02:11 46.77997 -122.73294 17395 ft 374 kts 10°
2026-05-07 02:11 46.80339 -122.71745 17269 ft 368 kts 27°
2026-05-07 02:12 46.82402 -122.69495 16617 ft 371 kts 33°
2026-05-07 02:12 46.84342 -122.67115 16168 ft 366 kts 34°
2026-05-07 02:12 46.86277 -122.64771 15799 ft 357 kts 33°
2026-05-07 02:12 46.88202 -122.62540 15428 ft 350 kts 32°
2026-05-07 02:13 46.90096 -122.60381 15272 ft 340 kts 31°
2026-05-07 02:13 46.91940 -122.58282 15111 ft 331 kts 31°
2026-05-07 02:13 46.93768 -122.56319 14994 ft 317 kts 22°
2026-05-07 02:13 46.95781 -122.55169 14677 ft 309 kts
2026-05-07 02:14 46.97837 -122.54324 14343 ft 311 kts
2026-05-07 02:14 46.99939 -122.53471 13998 ft 314 kts
2026-05-07 02:14 47.02040 -122.52589 13631 ft 313 kts 10°
2026-05-07 02:14 47.04130 -122.51686 13273 ft 311 kts 10°
2026-05-07 02:15 47.06091 -122.50830 12953 ft 308 kts 10°
2026-05-07 02:15 47.08138 -122.49957 12619 ft 303 kts
2026-05-07 02:15 47.10195 -122.49459 12310 ft 296 kts
2026-05-07 02:15 47.12233 -122.49153 12006 ft 293 kts 360°
2026-05-07 02:16 47.14251 -122.48841 11697 ft 291 kts
2026-05-07 02:16 47.16261 -122.48499 11392 ft 290 kts
2026-05-07 02:16 47.18234 -122.48148 11092 ft 288 kts
2026-05-07 02:16 47.20225 -122.47807 10786 ft 287 kts
2026-05-07 02:17 47.22021 -122.47532 10523 ft 287 kts
2026-05-07 02:17 47.24000 -122.47237 10230 ft 285 kts
2026-05-07 02:17 47.25977 -122.46941 9898 ft 283 kts
2026-05-07 02:17 47.27934 -122.46646 9569 ft 281 kts
2026-05-07 02:18 47.29849 -122.46354 9265 ft 278 kts
2026-05-07 02:18 47.31738 -122.46065 8986 ft 275 kts
2026-05-07 02:18 47.33629 -122.45775 8696 ft 272 kts
2026-05-07 02:18 47.35508 -122.45505 8391 ft 269 kts 359°
2026-05-07 02:19 47.37364 -122.45452 8125 ft 265 kts 356°
2026-05-07 02:19 47.39180 -122.45475 7838 ft 263 kts 355°
2026-05-07 02:19 47.40995 -122.45500 7622 ft 257 kts 356°
2026-05-07 02:19 47.42783 -122.45521 7285 ft 258 kts 356°
2026-05-07 02:20 47.44570 -122.45529 7033 ft 256 kts 357°
2026-05-07 02:20 47.46347 -122.45533 6753 ft 254 kts 357°
2026-05-07 02:20 47.48117 -122.45535 6471 ft 252 kts 358°
2026-05-07 02:20 47.49841 -122.45536 6188 ft 250 kts 358°
2026-05-07 02:21 47.51576 -122.45543 5962 ft 248 kts 357°
2026-05-07 02:21 47.53318 -122.45615 5605 ft 249 kts 356°
2026-05-07 02:21 47.55053 -122.45698 5284 ft 248 kts 358°
2026-05-07 02:21 47.56597 -122.45749 5079 ft 245 kts 358°
2026-05-07 02:22 47.58291 -122.45766 4824 ft 242 kts 360°
2026-05-07 02:22 47.59964 -122.45768 4567 ft 240 kts 359°
2026-05-07 02:22 47.61636 -122.45786 4310 ft 240 kts 359°
2026-05-07 02:22 47.63279 -122.45820 4081 ft 241 kts 359°
2026-05-07 02:23 47.64963 -122.45744 4010 ft 243 kts 12°
2026-05-07 02:23 47.66415 -122.44640 4005 ft 229 kts 44°
2026-05-07 02:23 47.67175 -122.42700 3978 ft 214 kts 78°
2026-05-07 02:23 47.67377 -122.40567 3992 ft 212 kts 84°
2026-05-07 02:24 47.67374 -122.38388 3985 ft 212 kts 106°
2026-05-07 02:24 47.66636 -122.36518 4003 ft 211 kts 132°
2026-05-07 02:24 47.65611 -122.34899 3797 ft 216 kts 135°
2026-05-07 02:24 47.64578 -122.33303 3594 ft 212 kts 135°
2026-05-07 02:25 47.63393 -122.32136 3349 ft 206 kts 168°
2026-05-07 02:25 47.61990 -122.31904 3233 ft 203 kts 175°
2026-05-07 02:25 47.60605 -122.31728 3182 ft 195 kts 179°
2026-05-07 02:25 47.59266 -122.31688 3006 ft 191 kts 181°
2026-05-07 02:26 47.57951 -122.31696 2759 ft 186 kts 181°
2026-05-07 02:26 47.56694 -122.31708 2507 ft 183 kts 182°
2026-05-07 02:26 47.55421 -122.31720 2243 ft 181 kts 181°
2026-05-07 02:26 47.54197 -122.31742 1948 ft 176 kts 182°
2026-05-07 02:27 47.53036 -122.31722 1869 ft 156 kts 180°
2026-05-07 02:27 47.51972 -122.31735 1595 ft 152 kts 184°
2026-05-07 02:27 47.50938 -122.31771 1375 ft 148 kts 181°
2026-05-07 02:27 47.49912 -122.31766 1194 ft 148 kts 181°
2026-05-07 02:28 47.48857 -122.31759 964 ft 153 kts 184°
2026-05-07 02:28 47.47798 -122.31776 791 ft 149 kts 182°
2026-05-07 02:28 47.46794 -122.31784 570 ft 144 kts 183°
2026-05-07 02:28 47.45821 -122.31787 426 ft 132 kts 182°
2026-05-07 02:29 47.45045 -122.31801 426 ft 83 kts 181°
2026-05-07 02:29 47.44661 -122.31803 417 ft 38 kts 180°
2026-05-07 02:29 47.44405 -122.31794 422 ft 37 kts 171°
2026-05-07 02:29 47.44199 -122.31679 425 ft 29 kts 148°
2026-05-07 02:30 47.44044 -122.31547 424 ft 25 kts 150°
2026-05-07 02:30 47.43899 -122.31427 426 ft 23 kts 150°
2026-05-07 02:30 47.43790 -122.31224 421 ft 29 kts 91°
2026-05-07 02:30 47.43791 -122.30925 428 ft 28 kts 90°
2026-05-07 02:31 47.43790 -122.30682 421 ft 15 kts 80°
2026-05-07 02:31 47.43876 -122.30631 427 ft 14 kts
2026-05-07 02:31 47.43975 -122.30628 427 ft 15 kts
2026-05-07 02:31 47.44110 -122.30627 422 ft 24 kts
2026-05-07 02:32 47.44274 -122.30625 419 ft 16 kts
2026-05-07 02:32 47.44333 -122.30544 431 ft 6 kts 88°
2026-05-07 02:32 47.44315 -122.30491 419 ft 6 kts 141°
2026-05-07 02:32 47.44300 -122.30461 431 ft 5 kts 107°
2026-05-07 02:33 47.44297 -122.30404 427 ft 6 kts 93°
2026-05-07 02:33 47.44283 -122.30357 424 ft 3 kts 133°
2026-05-07 02:33 47.44276 -122.30348 431 ft 0 kts 136°